Home   Weather   Zaandam   Past weeks

Flag for Netherlands Past Weather in Zaandam, Netherlands — Yesterday and Last 2 Weeks

Now
43 °F

Clear.


Feels Like: 39 °F
Forecast: 40 / 47 °F
Wind: 7 mph from South

Location: Amsterdam Schiphol Airport

Current Time: Apr 24, 2017 at 2:12:34 am

Latest Report: Apr 24, 2017 at 1:25 am


Visibility: 10 mi

Pressure: 30.15 "Hg

Humidity: 81%

Dew Point: 37 °F

Location of ZaandamLocation

Past Weather in Zaandam — Graph

°F

Zaandam Temperature Yesterday

Maximum temperature yesterday: 52 °F (at 3:55 pm)
Minimum temperature yesterday: 37 °F (at 6:25 am)
Average temperature yesterday: 45 °F

High & Low Weather Summary for the Past Weeks

 TemperatureHumidityPressure
High68 °F (Apr 9, 3:55 pm)100% (Apr 9, 12:55 am)30.63 "Hg (Apr 9, 12:55 am)
Low32 °F (Apr 20, 3:55 am)39% (Apr 19, 9:55 am)29.86 "Hg (Apr 15, 3:25 am)
Average48 °F73%30.21 "Hg
* Reported Apr 9 12:25 am — Apr 24 12:55 am, Zaandam, Weather by CustomWeather, © 2017

Note: Actual official high and low records may vary slightly from our data, if they occured in-between our weather recording intervals... More about our weather records

Advertising

Zaandam Weather History for the Previous 24 Hours

Scroll right to see more
 ConditionsComfort  
Time TempWeatherWind HumidityBarometerVisibility
12:55 am
Mon, Apr 24
43 °FClear.8 mph81%30.18 "Hg10 mi
12:25 am43 °FClear.6 mph81%30.18 "Hg10 mi
11:55 pm
Sun, Apr 23
45 °FClear.6 mph76%30.21 "Hg10 mi
11:25 pm43 °FClear.7 mph87%30.21 "Hg10 mi
10:55 pm43 °FClear.5 mph81%30.21 "Hg10 mi
10:25 pm43 °FClear.6 mph81%30.21 "Hg10 mi
9:55 pm43 °FClear.7 mph76%30.24 "Hg10 mi
9:25 pm45 °FClear.7 mph76%30.24 "Hg10 mi
8:55 pm46 °FPassing clouds.8 mph66%30.24 "HgN/A
8:25 pm46 °FPassing clouds.7 mph66%30.24 "HgN/A
7:55 pm48 °FPassing clouds.7 mph62%30.24 "HgN/A
7:25 pm48 °FPassing clouds.6 mph62%30.24 "HgN/A
6:55 pm48 °FPassing clouds.7 mph62%30.27 "HgN/A
6:25 pm50 °FPassing clouds.10 mph62%30.27 "HgN/A
5:55 pm48 °FPassing clouds.10 mph66%30.27 "HgN/A
5:25 pm50 °FPassing clouds.12 mph62%30.27 "HgN/A
4:55 pm50 °FPassing clouds.12 mph62%30.27 "HgN/A
4:25 pm50 °FPassing clouds.13 mph58%30.27 "HgN/A
3:55 pm52 °FPassing clouds.14 mph58%30.30 "HgN/A
2:55 pm50 °FScattered showers. Passing clouds.14 mph58%30.30 "HgN/A
2:25 pm50 °FScattered showers. Scattered clouds.16 mph62%30.30 "HgN/A
1:55 pm50 °FScattered clouds.15 mph58%30.30 "HgN/A
1:25 pm48 °FScattered showers. Passing clouds.16 mph66%30.30 "HgN/A
12:55 pm48 °FPassing clouds.12 mph71%30.33 "HgN/A
12:25 pm48 °FSprinkles. Scattered clouds.14 mph62%30.33 "Hg6 mi
11:55 am50 °FScattered showers. Passing clouds.14 mph71%30.30 "HgN/A
11:25 am48 °FPassing clouds.14 mph71%30.30 "HgN/A
10:55 am48 °FPassing clouds.13 mph71%30.30 "HgN/A
10:25 am45 °FScattered showers. Scattered clouds.8 mph81%30.33 "HgN/A
9:55 am43 °FSprinkles. Partly sunny.10 mph81%30.33 "Hg6 mi
8:55 am45 °FSprinkles. Passing clouds.8 mph81%30.30 "Hg4 mi
8:25 am43 °FSprinkles. Passing clouds.3 mph81%30.30 "HgN/A
7:55 am41 °FSprinkles. Scattered clouds.13 mph87%30.30 "Hg4 mi
7:25 am39 °FPassing clouds.3 mph81%30.30 "HgN/A
6:55 am39 °FPassing clouds.3 mph81%30.30 "HgN/A
6:25 am37 °FPassing clouds.3 mph93%30.30 "HgN/A
5:55 am39 °FPassing clouds.3 mph87%30.30 "HgN/A
5:25 am39 °FPassing clouds.3 mph87%30.27 "HgN/A
4:55 am39 °FPassing clouds.5 mph81%30.30 "HgN/A
4:25 am39 °FScattered showers. Passing clouds.5 mph87%30.27 "HgN/A
3:55 am41 °FPassing clouds.5 mph87%30.27 "HgN/A
3:25 am41 °FPassing clouds.6 mph87%30.30 "HgN/A
2:55 am41 °FScattered showers. Passing clouds.6 mph87%30.30 "HgN/A
2:25 am41 °FSprinkles. Passing clouds.5 mph87%30.30 "HgN/A
Weather by CustomWeather, © 2017

See weather overviewHow to use our weather pages